Hourly Weather Roundup
Issued by NWS Central Illinois

Home | Current Version | Previous Version | Text Only | Print | Product List | Glossary On
Versions: 1 2 3 4 5 6 7 8 9 10 11 12 13 14 15 16 17 18 19 20 21 22 23 24 25 26 27 28 29 30 31 32 33 34 35 36 37 38 39 40 41 42 43 44 45 46 47 48 49 50
000
NZUS43 KILX 281610
HWRILX

AREA WEATHER ROUNDUP
NATIONAL WEATHER SERVICE, LINCOLN IL
1000 AM CST WED JAN 28 2015


CITY           SKY/WX    TMP DP  RH WIND       PRES   REMARKS
BLOOMINGTON    SUNNY     30  20  66 S20       30.24F WCI  17
CHAMPAIGN      MOSUNNY   29  21  72 S16       30.28S WCI  17
DECATUR        MOSUNNY   31  24  75 S15       30.27S WCI  20
FLORA          SUNNY     33  28  82 SE13      30.31F WCI  23
GALESBURG      MOSUNNY   30  24  78 SE12G21   30.15F WCI  20
JACKSONVILLE   SUNNY     36  29  75 SE13G22   30.20F WCI  27
LACON          SUNNY     29  18  63 S13G21    30.22F WCI  19
LAWRENCEVILLE  SUNNY     31  21  66 SE14      30.34F WCI  21
LITCHFIELD     SUNNY     32  26  80 S18       30.24S WCI  20
$$


CITY           SKY/WX    TMP DP  RH WIND       PRES   REMARKS
LINCOLN        MOSUNNY   32  26  78 SE17      30.26S WCI  21
MACOMB         SUNNY     32  28  87 SE17      30.17F WCI  21
MATTOON        SUNNY     30  21  69 S15       30.27F WCI  19
MT CARMEL AP   SUNNY     34  23  64 SE10      30.34S WCI  26
OLNEY-NOBLE AP SUNNY     32  27  80 SE12      30.31F WCI  23
PARIS          MOSUNNY   29  22  76 SE15      30.31F WCI  17
PEORIA         MOSUNNY   32  22  66 S14       30.22F WCI  22
PONTIAC        SUNNY     30  22  73 SE14      30.26F WCI  19
RANTOUL        MOSUNNY   30  21  68 S16       30.28S WCI  19
ROBINSON       SUNNY     30  22  72 SE13      30.35F WCI  20
SPRINGFIELD    SUNNY     33  26  75 SE17      30.23F WCI  22
TAYLORVILLE    SUNNY     32  28  86 S16       30.25S WCI  21
$$

...REGIONAL REPORTS...


CITY           SKY/WX    TMP DP  RH WIND       PRES   REMARKS
CHICAGO O`HARE PTSUNNY   27  13  55 S12       30.26S WCI  17
KANKAKEE       MOSUNNY   28  20  72 S9        30.29S WCI  19
MOLINE         MOSUNNY   28  19  69 SE9G18    30.15F WCI  19
MOUNT VERNON   MOSUNNY   36  27  69 S13       30.30S WCI  27
PITTSFIELD     SUNNY     34  30  85 SE14      30.17F WCI  24
QUINCY         SUNNY     34  27  75 SE17G25   30.11F WCI  23
ROCKFORD       PTSUNNY   27  19  72 S16       30.24F WCI  15
$$


CITY           SKY/WX    TMP DP  RH WIND       PRES   REMARKS
BURLINGTON     MOSUNNY   33  27  78 SE16      30.11F WCI  23
CEDAR RAPIDS   MOSUNNY   30  25  81 SE18G24   30.04F WCI  18
DES MOINES     PTSUNNY   33  28  81 SE17      29.94F FOG     WCI  22
KIRKSVILLE     SUNNY     35  32  88 SE20G28   30.03F WCI  24
OTTUMWA        MOSUNNY   35  28  75 SE17G24   30.01F WCI  25
ST LOUIS       MOSUNNY   37  27  67 SE17G25   30.22S WCI  27
$$


CITY           SKY/WX    TMP DP  RH WIND       PRES   REMARKS
TERRE HAUTE    MOSUNNY   28  18  66 SE13      30.33S WCI  17
EVANSVILLE     SUNNY     34  21  59 SE9       30.35F WCI  27
INDIANAPOLIS   PTSUNNY   25  17  72 S10       30.33S WCI  15
LAFAYETTE      MOSUNNY   28  18  66 S8        30.30F WCI  20
MADISON        CLOUDY    26  20  77 S10       30.19S WCI  16
MILWAUKEE      PTSUNNY   28  20  71 S12       30.25R WCI  18
$$





USA.gov is the U.S. government's official web portal to all federal, state and local government web resources and services.